Weather History for Grand Canyon, AZ

Change the Weather History Date:

Friday, November 30, 2012

  Actual Average Record
Temperature  
Mean Temperature 40 °F -  
Max Temperature 53 °F 45 °F 63 °F (1999)
Min Temperature 26 °F 15 °F -6 °F (2006)
Degree Days  
Heating Degree Days 26    
Moisture  
Dew Point 30 °F    
Average Humidity 78    
Maximum Humidity 100    
Minimum Humidity 41    
Precipitation  
Precipitation 0.00 in - - ()
Sea Level Pressure  
Sea Level Pressure 30.17 in    
Wind  
Wind Speed 5 mph (SW)    
Max Wind Speed 16 mph    
Max Gust Speed 25 mph    
Visibility 8 miles    
Events Fog    
Averages and records for this station are not official NWS values.
T = Trace of Precipitation, MM = Missing Value Source: NWS Daily Summary

Daily Weather History Graph

Daily Weather History Graph

Search for Another Location

Airport:

Trip Planner

Search our weather history database for the weather conditions in past years. The results will help you decide how hot, cold, wet, or windy it might be!

Date:

Astronomy

Nov. 30, 2012 Rise Set
Actual Time 7:20 AM MST 5:14 PM MST
Civil Twilight 6:52 AM MST 5:42 PM MST
Nautical Twilight 6:20 AM MST 6:14 PM MST
Astronomical Twilight 5:49 AM MST 6:45 PM MST
Moon 7:12 PM MST (11/30) 8:55 AM MST (11/30)
Length of Visible Light 10h 50m
Length of Day
9h 54m
Waning Gibbous, 96% of the Moon is Illuminated
Nov 30
Waning Gibbous
Dec 6
Last Quarter
Dec 13
New
Dec 19
First Quarter
Dec 28
Full

Hourly Weather History & Observations

Time (MST) Temp. Windchill Dew Point Humidity Pressure Visibility Wind Dir Wind Speed Gust Speed Precip Events Conditions
12:54 AM 36.0 °F 32.1 °F 32.0 °F 86% 30.13 in 10.0 mi SW 4.6 mph - N/A   Clear
1:54 AM 27.0 °F - 27.0 °F 100% 30.16 in 3.0 mi Calm Calm - N/A   Clear
1:56 AM 26.6 °F - 26.6 °F 100% 30.24 in 1.2 mi Calm Calm - N/A   Clear
2:08 AM 26.6 °F - 21.2 °F 80% 30.23 in 2.0 mi Calm Calm - N/A   Clear
2:17 AM 26.6 °F 22.6 °F 23.0 °F 86% 30.23 in 10.0 mi SW 3.5 mph - N/A   Clear
2:54 AM 36.0 °F 31.1 °F 34.0 °F 93% 30.11 in 10.0 mi WSW 5.8 mph - N/A   Clear
3:54 AM 33.1 °F 26.9 °F 30.0 °F 89% 30.11 in 10.0 mi SW 6.9 mph - N/A   Clear
4:54 AM 30.9 °F - 28.9 °F 92% 30.12 in 10.0 mi Calm Calm - N/A   Clear
5:17 AM 30.2 °F 26.7 °F 28.4 °F 93% 30.21 in 10.0 mi NE 3.5 mph - N/A   Scattered Clouds
5:34 AM 30.2 °F - 28.4 °F 93% 30.21 in 8.0 mi Calm Calm - N/A   Mostly Cloudy
5:54 AM 30.9 °F - 28.0 °F 89% 30.20 in 10.0 mi Calm Calm - N/A   Overcast
6:35 AM 26.6 °F - 24.8 °F 93% 30.23 in 1.8 mi Calm Calm - N/A   Mostly Cloudy
6:43 AM 28.4 °F - 26.6 °F 93% 30.23 in 4.0 mi Calm Calm - N/A   Overcast
6:54 AM 27.0 °F - 27.0 °F 100% 30.24 in 9.0 mi Calm Calm - N/A   Mostly Cloudy
7:24 AM 26.6 °F - 24.8 °F 93% 30.24 in 2.5 mi Calm Calm - N/A   Mostly Cloudy
7:27 AM 28.4 °F - 24.8 °F 86% 30.24 in 5.0 mi Calm Calm - N/A   Scattered Clouds
7:44 AM 26.6 °F 21.2 °F 23.0 °F 86% 30.24 in 1.0 mi SW 4.6 mph - N/A   Mist
7:51 AM 28.4 °F 20.4 °F 26.6 °F 93% 30.24 in 0.5 mi SSW 8.1 mph - N/A Fog Light Freezing Fog
7:54 AM 30.9 °F 24.3 °F 28.0 °F 89% 30.24 in 1.0 mi SSW 6.9 mph - N/A   Mostly Cloudy
7:56 AM 32.0 °F 25.6 °F 28.4 °F 87% 30.23 in 3.0 mi SSW 6.9 mph - N/A   Mostly Cloudy
8:04 AM 35.6 °F 29.9 °F 32.0 °F 87% 30.24 in 6.0 mi SSW 6.9 mph - N/A   Mostly Cloudy
8:34 AM 39.2 °F 32.5 °F 37.4 °F 93% 30.25 in 9.0 mi SSW 10.4 mph - N/A   Overcast
8:54 AM 41.0 °F 34.7 °F 37.9 °F 89% 30.20 in 10.0 mi SSW 10.4 mph - N/A   Overcast
9:11 AM 42.8 °F 36.6 °F 37.4 °F 81% 30.25 in 10.0 mi SSW 11.5 mph - N/A   Scattered Clouds
9:54 AM 46.9 °F - 37.0 °F 68% 30.19 in 10.0 mi SSW 15.0 mph 20.7 mph N/A   Scattered Clouds
10:54 AM 51.1 °F - 36.0 °F 56% 30.18 in 10.0 mi SSW 15.0 mph 20.7 mph N/A   Clear
11:54 AM 53.1 °F - 32.0 °F 45% 30.10 in 10.0 mi SSW 12.7 mph 23.0 mph N/A   Clear
12:54 PM 53.1 °F - 30.9 °F 43% 30.08 in 10.0 mi SW 13.8 mph 20.7 mph N/A   Clear
1:54 PM 53.1 °F - 30.9 °F 43% 30.10 in 10.0 mi SW 16.1 mph 25.3 mph N/A   Clear
2:54 PM 53.1 °F - 30.0 °F 41% 30.06 in 10.0 mi SW 12.7 mph - N/A   Clear
3:54 PM 51.1 °F - 33.1 °F 50% 30.08 in 10.0 mi SW 15.0 mph 21.9 mph N/A   Clear
4:54 PM 50.0 °F - 34.0 °F 54% 30.11 in 10.0 mi SW 11.5 mph - N/A   Clear
6:54 PM 48.0 °F - 34.0 °F 58% 30.15 in 10.0 mi SW 11.5 mph - N/A   Clear
7:54 PM 46.0 °F 41.4 °F 34.0 °F 63% 30.15 in 10.0 mi SW 9.2 mph - N/A   Clear
8:54 PM 45.0 °F 41.8 °F 34.0 °F 65% 30.11 in 10.0 mi SW 5.8 mph - N/A   Clear
9:54 PM 44.1 °F 40.8 °F 34.0 °F 68% 30.07 in 10.0 mi WSW 5.8 mph - N/A   Clear
10:54 PM 44.1 °F 38.1 °F 34.0 °F 68% 30.05 in 10.0 mi SW 11.5 mph - N/A   Clear
11:54 PM 41.0 °F 36.4 °F 33.1 °F 73% 30.05 in 10.0 mi SW 6.9 mph - N/A   Clear